| time (UTC) | temp C | wind direction | speed KPH | gust KPH | rain 1hr cm | rain 24hr cm | rain mn cm | humidity % | barometer mb |
| 20260506190523 | 28 | 221 | 3.2 | 9.7 | 0.00 | 0.00 | 0.00 | 72 | 1008.5 |
| 20260506185757 | 28 | 210 | 3.2 | 9.7 | 0.00 | 0.00 | 0.00 | 73 | 1008.6 |
| 20260506185250 | 28 | 208 | 3.2 | 9.7 | 0.00 | 0.00 | 0.00 | 73 | 1008.7 |
| 20260506185009 | 28 | 208 | 4.8 | 9.7 | 0.00 | 0.00 | 0.00 | 74 | 1008.7 |
| 20260506184238 | 27 | 206 | 3.2 | 9.7 | 0.00 | 0.00 | 0.00 | 74 | 1008.9 |
| 20260506183734 | 27 | 219 | 3.2 | 11.3 | 0.00 | 0.00 | 0.00 | 75 | 1008.9 |
| 20260506183227 | 27 | 225 | 3.2 | 11.3 | 0.00 | 0.00 | 0.00 | 76 | 1009.0 |
| 20260506182720 | 27 | 250 | 3.2 | 11.3 | 0.00 | 0.00 | 0.00 | 76 | 1009.1 |
| 20260506182442 | 26 | 241 | 3.2 | 11.3 | 0.00 | 0.00 | 0.00 | 79 | 1009.3 |
| 20260506181709 | 26 | 267 | 3.2 | 11.3 | 0.00 | 0.00 | 0.00 | 77 | 1009.3 |
| 20260506181203 | 27 | 273 | 3.2 | 11.3 | 0.00 | 0.00 | 0.00 | 77 | 1009.4 |
| 20260506180656 | 26 | 202 | 4.8 | 11.3 | 0.00 | 0.00 | 0.00 | 78 | 1009.3 |
| 20260506180414 | 26 | 192 | 4.8 | 11.3 | 0.00 | 0.00 | 0.00 | 79 | 1009.3 |
| 20260506175645 | 26 | 195 | 4.8 | 11.3 | 0.00 | 0.00 | 0.00 | 80 | 1009.3 |
| 20260506175139 | 26 | 206 | 6.4 | 14.5 | 0.00 | 0.00 | 0.00 | 79 | 1009.4 |
| 20260506174633 | 27 | 189 | 4.8 | 14.5 | 0.00 | 0.00 | 0.00 | 77 | 1009.5 |
| 20260506174127 | 26 | 250 | 4.8 | 14.5 | 0.00 | 0.00 | 0.00 | 79 | 1009.5 |
| 20260506173620 | 26 | 265 | 3.2 | 14.5 | 0.00 | 0.00 | 0.00 | 81 | 1009.4 |
| 20260506173116 | 26 | 263 | 3.2 | 14.5 | 0.00 | 0.00 | 0.00 | 83 | 1009.5 |
| 20260506172609 | 25 | 259 | 3.2 | 12.9 | 0.00 | 0.00 | 0.00 | 84 | 1009.6 |
| 20260506172102 | 25 | 259 | 3.2 | 11.3 | 0.00 | 0.00 | 0.00 | 85 | 1009.6 |
| 20260506171557 | 25 | 249 | 3.2 | 11.3 | 0.00 | 0.00 | 0.00 | 85 | 1009.7 |
| 20260506171051 | 25 | 250 | 3.2 | 11.3 | 0.00 | 0.00 | 0.00 | 84 | 1009.7 |
| 20260506170544 | 25 | 249 | 3.2 | 11.3 | 0.00 | 0.00 | 0.00 | 84 | 1009.7 |
| 20260506170304 | 25 | 232 | 3.2 | 14.5 | 0.00 | 0.00 | 0.00 | 83 | 1009.7 |
| 20260506165533 | 25 | 240 | 3.2 | 14.5 | 0.00 | 0.00 | 0.00 | 83 | 1009.5 |
| 20260506165026 | 26 | 224 | 3.2 | 9.7 | 0.00 | 0.00 | 0.00 | 83 | 1009.6 |
| 20260506164521 | 25 | 215 | 1.6 | 8.0 | 0.00 | 0.00 | 0.00 | 83 | 1009.6 |
| 20260506164014 | 25 | 212 | 1.6 | 8.0 | 0.00 | 0.00 | 0.00 | 83 | 1009.6 |
| 20260506163509 | 25 | 207 | 1.6 | 8.0 | 0.00 | 0.00 | 0.00 | 82 | 1009.6 |
| 20260506163223 | 25 | 208 | 1.6 | 11.3 | 0.00 | 0.00 | 0.00 | 82 | 1009.5 |
| 20260506162456 | 25 | 205 | 3.2 | 11.3 | 0.00 | 0.00 | 0.00 | 82 | 1009.5 |
| 20260506161951 | 25 | 205 | 3.2 | 14.5 | 0.00 | 0.00 | 0.00 | 83 | 1009.5 |
| 20260506161705 | 25 | 194 | 3.2 | 14.5 | 0.00 | 0.00 | 0.00 | 83 | 1009.5 |
| 20260506160939 | 25 | 202 | 3.2 | 11.3 | 0.00 | 0.00 | 0.00 | 84 | 1009.4 |
| 20260506160432 | 25 | 201 | 4.8 | 11.3 | 0.00 | 0.00 | 0.00 | 84 | 1009.4 |
| 20260506155927 | 25 | 202 | 4.8 | 11.3 | 0.00 | 0.00 | 0.00 | 85 | 1009.4 |
| 20260506155423 | 25 | 234 | 3.2 | 11.3 | 0.00 | 0.00 | 0.00 | 86 | 1009.3 |
| 20260506154915 | 25 | 247 | 1.6 | 8.0 | 0.00 | 0.00 | 0.00 | 87 | 1009.3 |
| 20260506154409 | 24 | 263 | 1.6 | 4.8 | 0.00 | 0.00 | 0.00 | 87 | 1009.3 |
| 20260506153902 | 24 | 265 | 1.6 | 3.2 | 0.00 | 0.00 | 0.00 | 88 | 1009.1 |
| 20260506153357 | 24 | 265 | 1.6 | 3.2 | 0.00 | 0.00 | 0.00 | 88 | 1009.1 |
| 20260506152851 | 24 | 265 | 1.6 | 4.8 | 0.00 | 0.00 | 0.00 | 88 | 1009.0 |
| 20260506152344 | 24 | 265 | 0.0 | 4.8 | 0.00 | 0.00 | 0.00 | 89 | 1009.0 |
| 20260506151838 | 24 | 265 | 0.0 | 3.2 | 0.00 | 0.00 | 0.00 | 89 | 1008.9 |
| 20260506151333 | 23 | 265 | 0.0 | 4.8 | 0.00 | 0.00 | 0.00 | 90 | 1008.9 |
| 20260506150826 | 23 | 265 | 0.0 | 4.8 | 0.00 | 0.00 | 0.00 | 90 | 1008.8 |
| 20260506150320 | 23 | 265 | 0.0 | 1.6 | 0.00 | 0.00 | 0.00 | 91 | 1008.8 |
| 20260506145817 | 23 | 266 | 0.0 | 1.6 | 0.00 | 0.00 | 0.00 | 91 | 1008.7 |
| 20260506145317 | 23 | 266 | 0.0 | 3.2 | 0.00 | 0.00 | 0.00 | 92 | 1008.5 |
| 20260506145036 | 23 | 266 | 0.0 | 3.2 | 0.00 | 0.00 | 0.00 | 92 | 1008.6 |
| 20260506144317 | 23 | 266 | 0.0 | 3.2 | 0.00 | 0.00 | 0.00 | 92 | 1008.6 |
| 20260506143816 | 23 | 266 | 0.0 | 3.2 | 0.00 | 0.00 | 0.00 | 92 | 1008.7 |
| 20260506143317 | 23 | 266 | 1.6 | 3.2 | 0.00 | 0.00 | 0.00 | 92 | 1008.7 |
| 20260506142819 | 23 | 266 | 1.6 | 3.2 | 0.00 | 0.00 | 0.00 | 92 | 1008.8 |
| 20260506142319 | 23 | 266 | 0.0 | 4.8 | 0.00 | 0.00 | 0.00 | 92 | 1008.7 |
| 20260506141817 | 23 | 265 | 0.0 | 4.8 | 0.00 | 0.00 | 0.00 | 92 | 1008.8 |
| 20260506141315 | 23 | 265 | 0.0 | 4.8 | 0.00 | 0.00 | 0.00 | 92 | 1008.5 |
| 20260506140814 | 23 | 265 | 0.0 | 4.8 | 0.00 | 0.00 | 0.00 | 92 | 1008.3 |
| 20260506140315 | 23 | 266 | 0.0 | 3.2 | 0.00 | 0.00 | 0.00 | 92 | 1008.3 |
| 20260506135815 | 23 | 266 | 0.0 | 3.2 | 0.00 | 0.00 | 0.00 | 92 | 1008.2 |
| 20260506135314 | 23 | 266 | 0.0 | 6.4 | 0.00 | 0.00 | 0.00 | 92 | 1007.9 |
| 20260506134810 | 23 | 266 | 1.6 | 6.4 | 0.00 | 0.00 | 0.00 | 92 | 1007.8 |
| 20260506134311 | 23 | 266 | 1.6 | 6.4 | 0.00 | 0.00 | 0.00 | 92 | 1007.6 |
| 20260506133811 | 23 | 266 | 1.6 | 6.4 | 0.00 | 0.00 | 0.00 | 92 | 1007.5 |
| 20260506133539 | 23 | 267 | 1.6 | 6.4 | 0.00 | 0.00 | 0.00 | 92 | 1007.3 |
| 20260506132811 | 23 | 269 | 1.6 | 9.7 | 0.00 | 0.00 | 0.00 | 92 | 1007.3 |
| 20260506132311 | 23 | 269 | 1.6 | 9.7 | 0.00 | 0.00 | 0.00 | 92 | 1007.3 |
| 20260506131810 | 23 | 269 | 1.6 | 9.7 | 0.00 | 0.00 | 0.00 | 92 | 1007.3 |
| 20260506131529 | 23 | 269 | 1.6 | 9.7 | 0.00 | 0.00 | 0.00 | 92 | 1007.3 |
| 20260506130810 | 23 | 273 | 0.0 | 4.8 | 0.00 | 0.00 | 0.00 | 92 | 1007.3 |
| 20260506130311 | 23 | 272 | 0.0 | 3.2 | 0.00 | 0.00 | 0.00 | 92 | 1007.2 |
| 20260506125810 | 23 | 272 | 0.0 | 4.8 | 0.00 | 0.00 | 0.00 | 92 | 1007.1 |
| 20260506125310 | 23 | 272 | 1.6 | 4.8 | 0.00 | 0.00 | 0.00 | 92 | 1007.0 |
| 20260506124810 | 23 | 273 | 1.6 | 4.8 | 0.00 | 0.00 | 0.00 | 92 | 1006.9 |
| 20260506124311 | 23 | 273 | 1.6 | 9.7 | 0.00 | 0.00 | 0.00 | 92 | 1006.9 |
| 20260506123810 | 23 | 273 | 1.6 | 9.7 | 0.00 | 0.00 | 0.00 | 92 | 1006.9 |
| 20260506123311 | 23 | 276 | 1.6 | 4.8 | 0.00 | 0.00 | 0.00 | 92 | 1006.9 |
| 20260506122810 | 23 | 277 | 1.6 | 6.4 | 0.00 | 0.00 | 0.00 | 92 | 1006.9 |
| 20260506122310 | 23 | 277 | 1.6 | 6.4 | 0.00 | 0.00 | 0.00 | 92 | 1006.9 |
| 20260506121810 | 23 | 277 | 1.6 | 6.4 | 0.00 | 0.00 | 0.00 | 92 | 1006.8 |
| 20260506121309 | 23 | 283 | 0.0 | 3.2 | 0.00 | 0.00 | 0.00 | 92 | 1006.8 |
| 20260506120306 | 23 | 283 | 0.0 | 4.8 | 0.00 | 0.00 | 0.00 | 92 | 1006.9 |
| 20260506115805 | 23 | 283 | 0.0 | 1.6 | 0.00 | 0.00 | 0.00 | 92 | 1006.8 |
| 20260506115307 | 23 | 283 | 0.0 | 1.6 | 0.00 | 0.00 | 0.00 | 92 | 1006.8 |
| 20260506114802 | 23 | 283 | 0.0 | 1.6 | 0.00 | 0.00 | 0.00 | 92 | 1006.9 |
| 20260506114301 | 23 | 283 | 0.0 | 3.2 | 0.00 | 0.00 | 0.00 | 92 | 1006.9 |
| 20260506113800 | 23 | 283 | 0.0 | 3.2 | 0.00 | 0.00 | 0.00 | 92 | 1006.9 |
| 20260506113258 | 23 | 283 | 0.0 | 0.0 | 0.00 | 0.00 | 0.00 | 92 | 1007.0 |
| 20260506112757 | 23 | 283 | 0.0 | 1.6 | 0.00 | 0.00 | 0.00 | 92 | 1006.9 |
| 20260506112254 | 23 | 283 | 0.0 | 1.6 | 0.00 | 0.00 | 0.00 | 92 | 1006.9 |
| 20260506111753 | 23 | 283 | 0.0 | 1.6 | 0.00 | 0.00 | 0.00 | 92 | 1006.9 |
| 20260506111250 | 23 | 283 | 0.0 | 1.6 | 0.00 | 0.00 | 0.00 | 92 | 1006.9 |
| 20260506110749 | 23 | 283 | 1.6 | 3.2 | 0.00 | 0.00 | 0.00 | 92 | 1006.9 |
| 20260506110251 | 23 | 283 | 1.6 | 6.4 | 0.00 | 0.00 | 0.00 | 92 | 1006.9 |
| 20260506110006 | 23 | 283 | 1.6 | 6.4 | 0.00 | 0.00 | 0.00 | 92 | 1006.9 |
| 20260506105247 | 23 | 283 | 1.6 | 6.4 | 0.00 | 0.00 | 0.00 | 92 | 1006.9 |
| 20260506104744 | 23 | 283 | 1.6 | 6.4 | 0.00 | 0.00 | 0.00 | 92 | 1006.9 |
| 20260506104244 | 23 | 281 | 1.6 | 3.2 | 0.00 | 0.00 | 0.00 | 91 | 1006.8 |
| 20260506103738 | 23 | 281 | 1.6 | 3.2 | 0.00 | 0.00 | 0.00 | 91 | 1006.7 |
| 20260506103233 | 23 | 281 | 1.6 | 3.2 | 0.00 | 0.00 | 0.00 | 91 | 1006.7 |
| 20260506102953 | 23 | 280 | 1.6 | 3.2 | 0.00 | 0.00 | 0.00 | 91 | 1006.7 |
| 20260506102220 | 23 | 277 | 0.0 | 3.2 | 0.00 | 0.00 | 0.00 | 91 | 1006.8 |
| 20260506101714 | 23 | 0 | 0.0 | 3.2 | 0.00 | 0.00 | 0.00 | 91 | 1006.9 |
| 20260506101207 | 23 | 279 | 0.0 | 3.2 | 0.00 | 0.00 | 0.00 | 91 | 1006.8 |
| 20260506100927 | 23 | 0 | 1.6 | 3.2 | 0.00 | 0.00 | 0.00 | 91 | 1006.8 |
| 20260506100156 | 23 | 280 | 1.6 | 6.4 | 0.00 | 0.00 | 0.00 | 91 | 1006.7 |
| 20260506095649 | 23 | 280 | 1.6 | 4.8 | 0.00 | 0.00 | 0.00 | 91 | 1006.8 |
| 20260506095144 | 23 | 280 | 1.6 | 6.4 | 0.00 | 0.00 | 0.00 | 91 | 1006.8 |
| 20260506094900 | 23 | 279 | 1.6 | 4.8 | 0.00 | 0.00 | 0.00 | 91 | 1006.8 |
| 20260506094355 | 23 | 279 | 1.6 | 9.7 | 0.00 | 0.00 | 0.00 | 91 | 1006.8 |
| 20260506093625 | 23 | 278 | 1.6 | 9.7 | 0.00 | 0.00 | 0.00 | 90 | 1006.8 |
| 20260506093120 | 23 | 275 | 1.6 | 9.7 | 0.00 | 0.00 | 0.00 | 90 | 1006.7 |
| 20260506092615 | 23 | 275 | 1.6 | 9.7 | 0.00 | 0.00 | 0.00 | 90 | 1006.6 |
| 20260506092108 | 23 | 321 | 1.6 | 12.9 | 0.00 | 0.00 | 0.00 | 90 | 1006.6 |
| 20260506091056 | 23 | 323 | 1.6 | 12.9 | 0.00 | 0.00 | 0.00 | 90 | 1006.6 |
| 20260506090550 | 23 | 32 | 1.6 | 12.9 | 0.00 | 0.00 | 0.00 | 90 | 1006.5 |
| 20260506090044 | 23 | 344 | 1.6 | 8.0 | 0.00 | 0.00 | 0.00 | 90 | 1006.3 |
| 20260506085759 | 23 | 344 | 1.6 | 8.0 | 0.00 | 0.00 | 0.00 | 90 | 1006.3 |
| 20260506085032 | 23 | 339 | 1.6 | 9.7 | 0.00 | 0.00 | 0.00 | 90 | 1006.3 |
| 20260506084747 | 23 | 338 | 3.2 | 9.7 | 0.00 | 0.00 | 0.00 | 90 | 1006.3 |
| 20260506084242 | 23 | 21 | 4.8 | 11.3 | 0.00 | 0.00 | 0.00 | 90 | 1006.5 |
| 20260506083513 | 23 | 22 | 3.2 | 11.3 | 0.00 | 0.00 | 0.00 | 90 | 1006.5 |
| 20260506082735 | 23 | 19 | 3.2 | 8.0 | 0.00 | 0.00 | 0.00 | 90 | 1006.3 |
| 20260506082012 | 23 | 19 | 3.2 | 11.3 | 0.00 | 0.00 | 0.00 | 90 | 1006.3 |
| 20260506081512 | 23 | 17 | 3.2 | 11.3 | 0.00 | 0.00 | 0.00 | 90 | 1006.3 |
| 20260506081013 | 23 | 36 | 3.2 | 9.7 | 0.00 | 0.00 | 0.00 | 90 | 1006.6 |
| 20260506080512 | 23 | 37 | 3.2 | 9.7 | 0.00 | 0.00 | 0.00 | 90 | 1006.6 |
| 20260506073512 | 23 | 46 | 3.2 | 6.4 | 0.00 | 0.00 | 0.00 | 90 | 1006.7 |
| 20260506073012 | 23 | 44 | 1.6 | 6.4 | 0.00 | 0.00 | 0.00 | 90 | 1006.7 |
| 20260506072512 | 23 | 42 | 1.6 | 6.4 | 0.00 | 0.00 | 0.00 | 90 | 1006.8 |
| 20260506072010 | 23 | 45 | 1.6 | 8.0 | 0.00 | 0.00 | 0.00 | 90 | 1006.9 |
| 20260506071510 | 23 | 49 | 1.6 | 8.0 | 0.00 | 0.00 | 0.00 | 90 | 1006.9 |
| 20260506071012 | 23 | 50 | 1.6 | 8.0 | 0.00 | 0.00 | 0.00 | 89 | 1007.0 |
| 20260506070734 | 23 | 50 | 1.6 | 8.0 | 0.00 | 0.00 | 0.00 | 89 | 1007.1 |
| 20260506062419 | 23 | 59 | 1.6 | 6.4 | 0.00 | 0.00 | 0.00 | 89 | 1007.1 |
| 20260506062131 | 23 | 59 | 1.6 | 9.7 | 0.00 | 0.00 | 0.00 | 89 | 1007.1 |
| 20260506061416 | 23 | 60 | 1.6 | 9.7 | 0.00 | 0.00 | 0.00 | 89 | 1007.1 |
| 20260506060916 | 23 | 60 | 3.2 | 9.7 | 0.00 | 0.00 | 0.00 | 89 | 1007.2 |
| 20260506060415 | 23 | 60 | 3.2 | 9.7 | 0.00 | 0.00 | 0.00 | 88 | 1007.2 |
| 20260506051413 | 24 | 279 | 1.6 | 9.7 | 0.00 | 0.00 | 0.00 | 88 | 1006.9 |
| 20260506050914 | 24 | 278 | 1.6 | 9.7 | 0.00 | 0.00 | 0.00 | 88 | 1006.9 |
| 20260506050413 | 24 | 298 | 3.2 | 8.0 | 0.00 | 0.00 | 0.00 | 88 | 1006.9 |
| 20260506044902 | 24 | 303 | 1.6 | 11.3 | 0.00 | 0.00 | 0.00 | 88 | 1007.0 |
| 20260506044357 | 24 | 304 | 1.6 | 11.3 | 0.00 | 0.00 | 0.00 | 88 | 1006.9 |
| 20260506043343 | 24 | 333 | 1.6 | 8.0 | 0.00 | 0.00 | 0.00 | 88 | 1006.8 |
| 20260506042837 | 24 | 344 | 1.6 | 8.0 | 0.00 | 0.00 | 0.00 | 88 | 1006.8 |
| 20260506042332 | 25 | 5 | 1.6 | 6.4 | 0.00 | 0.00 | 0.00 | 88 | 1006.8 |
| 20260506042046 | 25 | 11 | 0.0 | 6.4 | 0.00 | 0.00 | 0.00 | 88 | 1006.8 |
| 20260506041320 | 25 | 16 | 1.6 | 6.4 | 0.00 | 0.00 | 0.00 | 88 | 1006.7 |
| 20260506040813 | 25 | 16 | 1.6 | 11.3 | 0.00 | 0.00 | 0.00 | 88 | 1006.7 |
| 20260506040308 | 25 | 19 | 1.6 | 11.3 | 0.00 | 0.00 | 0.00 | 88 | 1006.6 |
| 20260506035801 | 25 | 259 | 1.6 | 11.3 | 0.00 | 0.00 | 0.00 | 87 | 1006.7 |
| 20260506035256 | 25 | 260 | 1.6 | 11.3 | 0.00 | 0.00 | 0.00 | 87 | 1006.6 |
| 20260506034756 | 25 | 262 | 1.6 | 11.3 | 0.00 | 0.00 | 0.00 | 87 | 1006.3 |
| 20260506034522 | 25 | 263 | 1.6 | 11.3 | 0.00 | 0.00 | 0.00 | 87 | 1006.5 |
| 20260506033250 | 25 | 269 | 0.0 | 6.4 | 0.00 | 0.00 | 0.00 | 87 | 1006.3 |
| 20260506032751 | 25 | 270 | 1.6 | 6.4 | 0.00 | 0.00 | 0.00 | 86 | 1006.2 |
| 20260506032509 | 25 | 271 | 1.6 | 6.4 | 0.00 | 0.00 | 0.00 | 86 | 1006.2 |
| 20260506031746 | 25 | 271 | 1.6 | 6.4 | 0.00 | 0.00 | 0.00 | 86 | 1006.2 |
| 20260506031506 | 25 | 273 | 1.6 | 6.4 | 0.00 | 0.00 | 0.00 | 85 | 1006.1 |
| 20260506030744 | 25 | 273 | 1.6 | 9.7 | 0.00 | 0.00 | 0.00 | 85 | 1006.0 |
| 20260506030241 | 25 | 274 | 1.6 | 9.7 | 0.00 | 0.00 | 0.00 | 84 | 1005.8 |
| 20260506030003 | 25 | 264 | 0.0 | 3.2 | 0.00 | 0.00 | 0.00 | 84 | 1005.8 |
| 20260506024740 | 25 | 263 | 0.0 | 3.2 | 0.00 | 0.00 | 0.00 | 84 | 1005.7 |
| 20260506024240 | 25 | 263 | 0.0 | 1.6 | 0.00 | 0.00 | 0.00 | 84 | 1005.6 |
| 20260506023739 | 25 | 263 | 0.0 | 3.2 | 0.00 | 0.00 | 0.00 | 83 | 1005.5 |
| 20260506023238 | 25 | 263 | 0.0 | 3.2 | 0.00 | 0.00 | 0.00 | 83 | 1005.4 |
| 20260506022736 | 25 | 263 | 0.0 | 4.8 | 0.00 | 0.00 | 0.00 | 82 | 1005.3 |
| 20260506022233 | 25 | 263 | 0.0 | 4.8 | 0.00 | 0.00 | 0.00 | 82 | 1005.4 |
| 20260506021736 | 25 | 263 | 0.0 | 6.4 | 0.00 | 0.00 | 0.00 | 82 | 1005.4 |
| 20260506020730 | 26 | 263 | 1.6 | 6.4 | 0.00 | 0.00 | 0.00 | 81 | 1005.2 |
| 20260506020230 | 26 | 263 | 1.6 | 6.4 | 0.00 | 0.00 | 0.00 | 81 | 1005.2 |
| 20260506015954 | 26 | 263 | 1.6 | 6.4 | 0.00 | 0.00 | 0.00 | 81 | 1005.0 |
| 20260506015227 | 26 | 261 | 1.6 | 4.8 | 0.00 | 0.00 | 0.00 | 81 | 1005.0 |
| 20260506014728 | 26 | 261 | 0.0 | 4.8 | 0.00 | 0.00 | 0.00 | 81 | 1004.8 |
| 20260506014448 | 26 | 261 | 0.0 | 4.8 | 0.00 | 0.00 | 0.00 | 80 | 1004.6 |
| 20260506013727 | 26 | 261 | 0.0 | 4.8 | 0.00 | 0.00 | 0.00 | 80 | 1004.6 |
| 20260506013227 | 26 | 261 | 0.0 | 4.8 | 0.00 | 0.00 | 0.00 | 80 | 1004.5 |
| 20260506012728 | 26 | 261 | 1.6 | 4.8 | 0.00 | 0.00 | 0.00 | 79 | 1004.4 |
| 20260506012450 | 26 | 261 | 1.6 | 4.8 | 0.00 | 0.00 | 0.00 | 79 | 1004.5 |
| 20260506011724 | 26 | 261 | 0.0 | 4.8 | 0.00 | 0.00 | 0.00 | 78 | 1004.5 |
| 20260506011223 | 26 | 261 | 0.0 | 4.8 | 0.00 | 0.00 | 0.00 | 78 | 1004.5 |
| 20260506010723 | 27 | 261 | 1.6 | 3.2 | 0.00 | 0.00 | 0.00 | 78 | 1004.4 |
| 20260506010440 | 27 | 261 | 0.0 | 3.2 | 0.00 | 0.00 | 0.00 | 78 | 1004.4 |
| 20260506005723 | 27 | 261 | 0.0 | 3.2 | 0.00 | 0.00 | 0.00 | 78 | 1004.5 |
| 20260506005223 | 27 | 261 | 0.0 | 3.2 | 0.00 | 0.00 | 0.00 | 78 | 1004.5 |
| 20260506004724 | 27 | 261 | 0.0 | 3.2 | 0.00 | 0.00 | 0.00 | 77 | 1004.5 |
| 20260506004224 | 27 | 261 | 0.0 | 3.2 | 0.00 | 0.00 | 0.00 | 78 | 1004.4 |
| 20260506003717 | 27 | 261 | 0.0 | 1.6 | 0.00 | 0.00 | 0.00 | 78 | 1004.4 |
| 20260506003217 | 27 | 261 | 0.0 | 0.0 | 0.00 | 0.00 | 0.00 | 75 | 1004.6 |
| 20260506002718 | 27 | 261 | 0.0 | 0.0 | 0.00 | 0.00 | 0.00 | 75 | 1004.5 |
| 20260506002217 | 27 | 261 | 0.0 | 0.0 | 0.00 | 0.00 | 0.00 | 74 | 1004.6 |
| 20260506001717 | 27 | 261 | 0.0 | 0.0 | 0.00 | 0.00 | 0.00 | 74 | 1004.6 |
| 20260506001217 | 28 | 261 | 0.0 | 1.6 | 0.00 | 0.00 | 0.00 | 73 | 1004.6 |
| 20260506000718 | 28 | 261 | 0.0 | 3.2 | 0.00 | 0.00 | 0.00 | 73 | 1004.5 |
| 20260506000219 | 28 | 261 | 0.0 | 3.2 | 0.00 | 0.00 | 0.00 | 72 | 1004.4 |
| 20260505235717 | 28 | 261 | 0.0 | 1.6 | 0.00 | 0.00 | 0.00 | 73 | 1004.3 |
| 20260505235218 | 28 | 261 | 0.0 | 4.8 | 0.00 | 0.00 | 0.00 | 71 | 1004.4 |
| 20260505234717 | 28 | 261 | 0.0 | 4.8 | 0.00 | 0.00 | 0.00 | 71 | 1004.4 |
| 20260505234217 | 28 | 261 | 1.6 | 4.8 | 0.00 | 0.00 | 0.00 | 70 | 1004.3 |
| 20260505233718 | 29 | 261 | 1.6 | 6.4 | 0.00 | 0.00 | 0.00 | 69 | 1004.3 |
| 20260505233219 | 29 | 261 | 1.6 | 9.7 | 0.00 | 0.00 | 0.00 | 68 | 1004.3 |
| 20260505232717 | 29 | 259 | 1.6 | 9.7 | 0.00 | 0.00 | 0.00 | 69 | 1004.4 |
| 20260505232218 | 29 | 15 | 1.6 | 6.4 | 0.00 | 0.00 | 0.00 | 70 | 1004.3 |
| 20260505231711 | 28 | 15 | 1.6 | 6.4 | 0.00 | 0.00 | 0.00 | 70 | 1004.4 |
| 20260505231205 | 28 | 14 | 3.2 | 8.0 | 0.00 | 0.00 | 0.00 | 70 | 1004.4 |
| 20260505230658 | 28 | 13 | 3.2 | 8.0 | 0.00 | 0.00 | 0.00 | 70 | 1004.3 |
| 20260505230418 | 28 | 355 | 3.2 | 6.4 | 0.00 | 0.00 | 0.00 | 70 | 1004.3 |
| 20260505225646 | 29 | 355 | 1.6 | 6.4 | 0.00 | 0.00 | 0.00 | 69 | 1004.2 |
| 20260505225141 | 29 | 9 | 3.2 | 6.4 | 0.00 | 0.00 | 0.00 | 69 | 1004.3 |
| 20260505224634 | 29 | 10 | 3.2 | 6.4 | 0.00 | 0.00 | 0.00 | 69 | 1004.2 |
| 20260505224129 | 29 | 5 | 3.2 | 6.4 | 0.00 | 0.00 | 0.00 | 68 | 1004.2 |
| 20260505223622 | 29 | 5 | 3.2 | 8.0 | 0.00 | 0.00 | 0.00 | 70 | 1004.2 |
| 20260505223117 | 29 | 19 | 3.2 | 9.7 | 0.00 | 0.00 | 0.00 | 70 | 1004.2 |
| 20260505222610 | 29 | 32 | 4.8 | 11.3 | 0.00 | 0.00 | 0.00 | 68 | 1004.2 |
| 20260505222105 | 30 | 250 | 3.2 | 11.3 | 0.00 | 0.00 | 0.00 | 69 | 1004.2 |
| 20260505221558 | 30 | 283 | 3.2 | 8.0 | 0.00 | 0.00 | 0.00 | 69 | 1004.2 |
| 20260505221053 | 29 | 5 | 3.2 | 14.5 | 0.00 | 0.00 | 0.00 | 69 | 1004.2 |
| 20260505220548 | 29 | 250 | 4.8 | 14.5 | 0.00 | 0.00 | 0.00 | 68 | 1004.1 |
| 20260505220040 | 29 | 20 | 4.8 | 11.3 | 0.00 | 0.00 | 0.00 | 68 | 1004.2 |
| 20260505215536 | 29 | 11 | 4.8 | 14.5 | 0.00 | 0.00 | 0.00 | 68 | 1004.1 |
| 20260505215029 | 30 | 23 | 4.8 | 14.5 | 0.00 | 0.00 | 0.00 | 69 | 1004.3 |
| 20260505214234 | 29 | 17 | 3.2 | 8.0 | 0.00 | 0.00 | 0.00 | 69 | 1004.3 |
| 20260505213511 | 29 | 22 | 4.8 | 12.9 | 0.00 | 0.00 | 0.00 | 69 | 1004.4 |
| 20260505213229 | 29 | 21 | 4.8 | 12.9 | 0.00 | 0.00 | 0.00 | 68 | 1004.4 |
| 20260505212459 | 29 | 0 | 4.8 | 12.9 | 0.00 | 0.00 | 0.00 | 68 | 1004.7 |
| 20260505211952 | 29 | 36 | 6.4 | 14.5 | 0.00 | 0.00 | 0.00 | 68 | 1004.8 |
| 20260505211447 | 29 | 24 | 4.8 | 14.5 | 0.00 | 0.00 | 0.00 | 68 | 1004.8 |
| 20260505210940 | 29 | 13 | 4.8 | 11.3 | 0.00 | 0.00 | 0.00 | 69 | 1004.8 |
| 20260505210435 | 29 | 38 | 4.8 | 11.3 | 0.00 | 0.00 | 0.00 | 70 | 1004.8 |
| 20260505205928 | 28 | 40 | 4.8 | 16.1 | 0.00 | 0.00 | 0.00 | 69 | 1004.9 |
| 20260505205423 | 28 | 286 | 4.8 | 16.1 | 0.00 | 0.00 | 0.00 | 69 | 1005.2 |
| 20260505204918 | 29 | 32 | 6.4 | 16.1 | 0.00 | 0.00 | 0.00 | 69 | 1005.3 |
| 20260505204411 | 29 | 42 | 4.8 | 16.1 | 0.00 | 0.00 | 0.00 | 68 | 1005.3 |
| 20260505203905 | 29 | 20 | 3.2 | 12.9 | 0.00 | 0.00 | 0.00 | 70 | 1005.3 |
| 20260505203359 | 29 | 285 | 4.8 | 12.9 | 0.00 | 0.00 | 0.00 | 71 | 1005.5 |
| 20260505202852 | 28 | 19 | 4.8 | 12.9 | 0.00 | 0.00 | 0.00 | 70 | 1005.5 |
| 20260505202347 | 28 | 22 | 4.8 | 12.9 | 0.00 | 0.00 | 0.00 | 71 | 1005.4 |
| 20260505201840 | 29 | 17 | 6.4 | 16.1 | 0.00 | 0.00 | 0.00 | 70 | 1005.5 |
| 20260505201334 | 28 | 38 | 8.0 | 17.7 | 0.00 | 0.00 | 0.00 | 70 | 1005.7 |
| 20260505200829 | 28 | 5 | 6.4 | 17.7 | 0.00 | 0.00 | 0.00 | 72 | 1005.6 |
| 20260505200325 | 28 | 21 | 4.8 | 16.1 | 0.00 | 0.00 | 0.00 | 70 | 1005.7 |
| 20260505195817 | 28 | 22 | 4.8 | 16.1 | 0.00 | 0.00 | 0.00 | 72 | 1005.8 |
| 20260505195537 | 28 | 0 | 3.2 | 16.1 | 0.00 | 0.00 | 0.00 | 71 | 1005.8 |
| 20260505195032 | 28 | 28 | 4.8 | 16.1 | 0.00 | 0.00 | 0.00 | 72 | 1006.0 |
| 20260505194259 | 28 | 34 | 6.4 | 19.3 | 0.00 | 0.00 | 0.00 | 72 | 1006.0 |
| 20260505193752 | 28 | 34 | 6.4 | 19.3 | 0.00 | 0.00 | 0.00 | 70 | 1006.0 |
| 20260505193247 | 28 | 19 | 6.4 | 17.7 | 0.00 | 0.00 | 0.00 | 71 | 1006.0 |
| 20260505192958 | 28 | 22 | 6.4 | 14.5 | 0.00 | 0.00 | 0.00 | 72 | 1006.0 |
| 20260505192235 | 27 | 34 | 4.8 | 14.5 | 0.00 | 0.00 | 0.00 | 73 | 1006.1 |
| 20260505191954 | 27 | 9 | 4.8 | 14.5 | 0.00 | 0.00 | 0.00 | 74 | 1006.1 |
| 20260505191222 | 27 | 66 | 3.2 | 14.5 | 0.00 | 0.00 | 0.00 | 74 | 1006.2 |
| 20260505190717 | 27 | 66 | 1.6 | 14.5 | 0.00 | 0.00 | 0.00 | 76 | 1006.2 |